• In Denmark
  • List of Countries
  • For 7 days
  • Water Temperature
  • Satellite Maps
  • Weather Map
  • Weather Widgets
  • user-avatar
    Login

    Hourly Weather Barra

    Today, 28 July, Friday

    Time Temperature Precipitation Wind Pressure Humidity
    00:00 +18°C° 0.1 mm 4 mps 754 mmHg 93%
    01:00 +18°C° 0.1 mm 4 mps 754 mmHg 93%
    02:00 +18°C° 0.1 mm 4 mps 754 mmHg 93%
    03:00 +18°C° 0.1 mm 4 mps 753 mmHg 93%
    04:00 +18°C° 0 mm 4 mps 753 mmHg 95%
    05:00 +18°C° 0.1 mm 4 mps 753 mmHg 95%
    06:00 +18°C° 0.1 mm 4 mps 754 mmHg 94%
    07:00 +17°C° 0.1 mm 5 mps 754 mmHg 94%
    08:00 +19°C° 0 mm 5 mps 754 mmHg 85%
    09:00 +21°C° 0 mm 5 mps 754 mmHg 75%
    10:00 +23°C° 0 mm 5 mps 754 mmHg 66%
    11:00 +25°C° 0 mm 5 mps 754 mmHg 62%
    12:00 +25°C° 0 mm 5 mps 754 mmHg 58%
    13:00 +26°C° 0 mm 5 mps 753 mmHg 54%
    14:00 +26°C° 0 mm 5 mps 753 mmHg 56%
    15:00 +25°C° 0 mm 5 mps 753 mmHg 58%
    16:00 +25°C° 0 mm 5 mps 753 mmHg 59%
    17:00 +22°C° 0 mm 5 mps 753 mmHg 68%
    18:00 +21°C° 0 mm 4 mps 753 mmHg 77%
    19:00 +19°C° 0 mm 4 mps 753 mmHg 86%
    20:00 +19°C° 0 mm 4 mps 754 mmHg 87%
    21:00 +18°C° 0 mm 4 mps 754 mmHg 89%
    22:00 +18°C° 0 mm 4 mps 754 mmHg 90%
    23:00 +18°C° 0 mm 4 mps 754 mmHg 90%

    Tomorrow, 29 July, Saturday

    Time Temperature Precipitation Wind Pressure Humidity
    00:00 +18°C° 0 mm 4 mps 754 mmHg 90%
    01:00 +18°C° 0 mm 4 mps 754 mmHg 90%
    02:00 +18°C° 0 mm 4 mps 754 mmHg 90%
    03:00 +18°C° 0 mm 4 mps 753 mmHg 90%
    04:00 +18°C° 0 mm 4 mps 753 mmHg 90%
    05:00 +18°C° 0 mm 4 mps 753 mmHg 90%
    06:00 +18°C° 0 mm 4 mps 753 mmHg 90%
    07:00 +18°C° 0 mm 4 mps 754 mmHg 90%
    08:00 +20°C° 0 mm 4 mps 754 mmHg 80%
    09:00 +22°C° 0 mm 4 mps 754 mmHg 70%
    10:00 +25°C° 0 mm 5 mps 754 mmHg 60%
    11:00 +25°C° 0 mm 5 mps 754 mmHg 56%
    12:00 +26°C° 0 mm 5 mps 753 mmHg 53%
    13:00 +27°C° 0 mm 5 mps 753 mmHg 50%
    14:00 +26°C° 0 mm 5 mps 752 mmHg 50%
    15:00 +26°C° 0 mm 5 mps 752 mmHg 51%
    16:00 +25°C° 0 mm 5 mps 752 mmHg 52%
    17:00 +23°C° 0 mm 4 mps 752 mmHg 61%
    18:00 +21°C° 0 mm 4 mps 752 mmHg 71%
    19:00 +19°C° 0 mm 3 mps 752 mmHg 80%
    20:00 +18°C° 0 mm 4 mps 753 mmHg 83%
    21:00 +18°C° 0 mm 4 mps 753 mmHg 85%
    22:00 +18°C° 0 mm 4 mps 753 mmHg 88%
    23:00 +19°C° 0 mm 4 mps 753 mmHg 86%

    Day after tomorrow, 30 July, Sunday

    Time Temperature Precipitation Wind Pressure Humidity
    00:00 +19°C° 0 mm 4 mps 753 mmHg 84%
    01:00 +19°C° 0 mm 4 mps 752 mmHg 82%
    02:00 +19°C° 0.1 mm 4 mps 752 mmHg 83%
    03:00 +19°C° 0.1 mm 4 mps 752 mmHg 84%
    04:00 +19°C° 0.1 mm 4 mps 752 mmHg 86%
    05:00 +19°C° 0.1 mm 4 mps 752 mmHg 86%
    06:00 +19°C° 0.1 mm 3 mps 753 mmHg 87%
    07:00 +19°C° 0.1 mm 3 mps 753 mmHg 87%
    08:00 +20°C° 0 mm 4 mps 753 mmHg 81%
    09:00 +22°C° 0 mm 4 mps 753 mmHg 74%
    10:00 +23°C° 0 mm 4 mps 753 mmHg 67%
    11:00 +25°C° 0 mm 4 mps 753 mmHg 65%
    12:00 +25°C° 0 mm 4 mps 752 mmHg 63%
    13:00 +26°C° 0 mm 4 mps 751 mmHg 60%
    14:00 +25°C° 0.1 mm 4 mps 751 mmHg 62%
    15:00 +25°C° 0.1 mm 4 mps 751 mmHg 64%
    16:00 +25°C° 0.1 mm 4 mps 750 mmHg 65%
    17:00 +22°C° 0.1 mm 4 mps 751 mmHg 74%
    18:00 +21°C° 0.1 mm 3 mps 751 mmHg 82%
    19:00 +19°C° 0.1 mm 3 mps 752 mmHg 90%
    20:00 +19°C° 0.1 mm 3 mps 752 mmHg 92%
    21:00 +19°C° 0.1 mm 3 mps 753 mmHg 93%
    22:00 +19°C° 0.1 mm 3 mps 753 mmHg 94%
    23:00 +19°C° 0.1 mm 3 mps 753 mmHg 94%

    31 July, Monday

    Time Temperature Precipitation Wind Pressure Humidity
    00:00 +19°C° 0.1 mm 3 mps 753 mmHg 94%
    01:00 +19°C° 0.1 mm 3 mps 753 mmHg 94%
    02:00 +19°C° 0.1 mm 3 mps 752 mmHg 95%
    03:00 +18°C° 0.1 mm 3 mps 752 mmHg 95%
    04:00 +18°C° 0.1 mm 3 mps 752 mmHg 96%
    05:00 +18°C° 0.1 mm 3 mps 752 mmHg 96%
    06:00 +18°C° 0.1 mm 3 mps 752 mmHg 96%
    07:00 +18°C° 0.1 mm 3 mps 753 mmHg 97%
    08:00 +19°C° 0.1 mm 3 mps 753 mmHg 93%
    09:00 +21°C° 0.1 mm 3 mps 753 mmHg 89%
    10:00 +22°C° 0.1 mm 3 mps 754 mmHg 85%
    11:00 +22°C° 0.2 mm 3 mps 753 mmHg 84%
    12:00 +22°C° 0.2 mm 3 mps 753 mmHg 84%
    13:00 +22°C° 0.2 mm 3 mps 752 mmHg 83%
    14:00 +24°C° 0.2 mm 3 mps 752 mmHg 82%
    15:00 +24°C° 0.2 mm 3 mps 751 mmHg 80%
    16:00 +24°C° 0.2 mm 3 mps 751 mmHg 78%
    17:00 +22°C° 0.1 mm 3 mps 752 mmHg 82%
    18:00 +21°C° 0.1 mm 3 mps 752 mmHg 87%
    19:00 +20°C° 0.1 mm 3 mps 752 mmHg 91%
    20:00 +20°C° 0 mm 3 mps 753 mmHg 92%
    21:00 +19°C° 0 mm 2 mps 753 mmHg 94%
    22:00 +19°C° 0 mm 2 mps 753 mmHg 95%
    23:00 +19°C° 0.1 mm 2 mps 753 mmHg 96%

    1 August, Tuesday

    Time Temperature Precipitation Wind Pressure Humidity
    00:00 +19°C° 0.1 mm 2 mps 753 mmHg 96%
    01:00 +19°C° 0.1 mm 2 mps 752 mmHg 96%
    02:00 +19°C° 0.1 mm 2 mps 752 mmHg 96%
    03:00 +19°C° 0.1 mm 2 mps 752 mmHg 96%
    04:00 +19°C° 0.1 mm 2 mps 751 mmHg 96%
    05:00 +18°C° 0 mm 2 mps 752 mmHg 96%
    06:00 +18°C° 0 mm 2 mps 752 mmHg 97%
    07:00 +18°C° 0 mm 2 mps 753 mmHg 97%
    08:00 +20°C° 0 mm 3 mps 753 mmHg 89%
    09:00 +22°C° 0 mm 3 mps 753 mmHg 80%
    10:00 +24°C° 0 mm 3 mps 753 mmHg 72%
    11:00 +25°C° 0 mm 3 mps 753 mmHg 66%
    12:00 +26°C° 0 mm 3 mps 752 mmHg 60%
    13:00 +27°C° 0 mm 3 mps 751 mmHg 54%
    14:00 +27°C° 0 mm 3 mps 751 mmHg 55%
    15:00 +27°C° 0 mm 3 mps 751 mmHg 56%
    16:00 +26°C° 0 mm 3 mps 751 mmHg 57%
    17:00 +24°C° 0 mm 3 mps 751 mmHg 67%
    18:00 +21°C° 0 mm 3 mps 751 mmHg 77%
    19:00 +19°C° 0 mm 2 mps 752 mmHg 87%
    20:00 +18°C° 0 mm 2 mps 752 mmHg 89%
    21:00 +18°C° 0 mm 2 mps 753 mmHg 92%
    22:00 +18°C° 0 mm 2 mps 753 mmHg 94%
    23:00 +17°C° 0 mm 2 mps 753 mmHg 94%

    2 August, Wednesday

    Time Temperature Precipitation Wind Pressure Humidity
    00:00 +17°C° 0 mm 2 mps 752 mmHg 95%
    01:00 +17°C° 0 mm 2 mps 752 mmHg 95%
    02:00 +17°C° 0 mm 2 mps 752 mmHg 95%
    03:00 +17°C° 0 mm 2 mps 751 mmHg 96%
    04:00 +17°C° 0 mm 3 mps 751 mmHg 96%
    05:00 +17°C° 0 mm 3 mps 752 mmHg 96%
    06:00 +17°C° 0 mm 3 mps 752 mmHg 96%
    07:00 +17°C° 0 mm 3 mps 752 mmHg 96%
    08:00 +19°C° 0 mm 3 mps 752 mmHg 86%
    09:00 +21°C° 0 mm 3 mps 753 mmHg 76%
    10:00 +24°C° 0 mm 3 mps 753 mmHg 66%
    11:00 +26°C° 0 mm 3 mps 752 mmHg 62%
    12:00 +27°C° 0 mm 3 mps 751 mmHg 58%
    13:00 +28°C° 0 mm 3 mps 751 mmHg 53%
    14:00 +27°C° 0 mm 3 mps 750 mmHg 56%
    15:00 +27°C° 0 mm 3 mps 750 mmHg 59%
    16:00 +26°C° 0 mm 3 mps 750 mmHg 62%
    17:00 +24°C° 0 mm 3 mps 750 mmHg 72%
    18:00 +22°C° 0 mm 3 mps 750 mmHg 83%
    19:00 +20°C° 0 mm 2 mps 751 mmHg 93%
    20:00 +20°C° 0.1 mm 2 mps 751 mmHg 94%
    21:00 +19°C° 0.1 mm 2 mps 751 mmHg 95%
    22:00 +19°C° 0.1 mm 2 mps 752 mmHg 96%
    23:00 +19°C° 0.1 mm 2 mps 751 mmHg 96%
    Show more